Location: Emblem
(62.4273°N, 6.4710°E)
Time: 08:57:22
(UTC+01:00)

BlueWalker 3 - Visible Passes

Search period start: 06 December 2022 00:00
Search period end: 16 December 2022 00:00
Orbit: 501 x 518 km, 53.2° (Epoch: 05 December)

Date Brightness Start Highest point End Pass type
(mag) Time Alt. Az. Time Alt. Az. Time Alt. Az.
06 Dec 4.1 17:24:40 10° SW 17:27:40 21° S 17:30:39 10° SE visible
06 Dec 4.5 19:03:19 10° WSW 19:05:21 14° SSW 19:06:30 12° S visible
07 Dec 4.2 17:06:15 10° SW 17:09:15 21° S 17:12:13 10° SE visible
07 Dec 4.7 18:44:57 10° WSW 18:46:54 13° SSW 18:48:51 10° S visible
08 Dec 4.3 16:47:49 10° WSW 16:50:48 21° S 16:53:47 10° SE visible
08 Dec 4.7 18:26:34 10° WSW 18:28:27 13° SSW 18:30:19 10° S visible
09 Dec 4.4 16:29:22 10° WSW 16:32:21 21° S 16:35:19 10° SE visible
09 Dec 4.8 18:08:13 10° SW 18:10:01 13° SSW 18:11:47 10° S visible
10 Dec 4.5 16:10:56 10° WSW 16:13:54 21° S 16:16:52 10° SE visible
10 Dec 4.9 17:49:51 10° SW 17:51:33 12° SSW 17:53:14 10° S visible
11 Dec 5.0 17:31:30 10° SW 17:33:05 12° SSW 17:34:39 10° S visible
12 Dec 5.1 17:13:09 10° SW 17:14:37 12° SSW 17:16:04 10° S visible
13 Dec 5.3 16:54:48 10° SW 16:56:08 11° SSW 16:57:28 10° S visible
14 Dec 5.4 16:36:29 10° SW 16:37:39 11° SSW 16:38:49 10° SSW visible
15 Dec 5.6 16:18:12 10° SW 16:19:11 11° SSW 16:20:09 10° SSW visible
